Weather Service Report


826 
ASUS46 KSEW 232020
RWRWA 

WASHINGTON REGIONAL WEATHER ROUNDUP
NATIONAL WEATHER SERVICE SEATTLE WA
1200 PM PST SUN FEB 23 2020

NOTE:"FAIR" INDICATES FEW OR NO CLOUDS BELOW 12,000 FEET WITH NO 
SIGNIFICANT WEATHER AND/OR OBSTRUCTIONS TO VISIBILITY.

WAZ507-509-555>559-232100-
SEATTLE, TACOMA, EVERETT, AND VICINITY
  
CITY           SKY/WX    TMP DP  RH WIND       PRES   REMARKS
EVERETT        PTSUNNY   44  38  79 SW23G31   29.93R                  
BOEING FIELD   PTSUNNY   46  39  76 S10G22    29.98F                  
RENTON         LGT RAIN  44  38  79 S14G24    29.99R                  
SEATAC AIRPORT LGT RAIN  44  38  79 SW20G31   29.98R                  
JBLM-MCCHORD   LGT RAIN  45  39  81 SW16      30.02R                  
PUYALLUP       LGT RAIN  43  41  93 SW12      30.02S                  
BREMERTON      PTSUNNY   43  41  93 S13       29.96R                  
JBLM-FT LEWIS  HVY RAIN  44  44 100 S14G25    30.02R                  
TACOMA NARROWS CLOUDY    43  38  82 S12G21    29.99R                  
$$
 
WAZ001-503-506-510-514-515-232100-
NORTH INTERIOR
  
CITY           SKY/WX    TMP DP  RH WIND       PRES   REMARKS
BELLINGHAM     LGT RAIN  44  38  79 S15G29    29.87R                  
FRIDAY HARBOR  LGT RAIN  44  41  89 S14G22    29.89S                  
EASTSOUND      MIX PCPN  45  43  93 SW10G16   29.87R                  
PORT ANGELES   CLOUDY    44  38  79 SW6       29.89R                  
EDIZ HOOK      LGT RAIN  45  38  78 CALM      29.90R                  
PORT TOWNSEND  PTSUNNY   46  43  87 VRB7G13   29.90S                  
NAS WHIDBEY    CLOUDY    49  41  74 SE14      29.94S                  
ARLINGTON      LGT RAIN  44  39  82 S14       29.94S                  
BURLINGTON     PTSUNNY   46  41  81 SE10G17   29.92R                  
$$
 
WAZ020-022-039-040-504-511-512-232100-
SOUTHWEST INTERIOR
  
CITY           SKY/WX    TMP DP  RH WIND       PRES   REMARKS
SHELTON        LGT RAIN  45  40  82 W21G32    29.98R                  
OLYMPIA        LGT RAIN  44  40  85 SW13      30.03R                  
CHEHALIS       PTSUNNY   50  43  76 VRB6G22   30.08R                  
KELSO          LGT RAIN  46  39  76 W10G23    30.15R                  
VANCOUVER      SUNNY     51  33  50 W16G25    30.15R                  
SCAPPOOSE, OR  MOSUNNY   49  39  68 SW17      30.14R                  
PORTLAND, OR   MOSUNNY   52  33  48 W22G29    30.16R                  
$$
 
WAZ021-516-517-232100-
WASHINGTON COAST
  
CITY           SKY/WX    TMP DP  RH WIND       PRES   REMARKS
FORKS          LGT RAIN  44  38  79 W23G43    29.94R                  
HOQUIAM        CLOUDY    47  39  74 W26G37    30.06R                  
ASTORIA, OR    CLOUDY    47  38  71 W24G32    30.14R                  
$$
 
WAZ019-023-024-040-567>569-232100-
CASCADE MOUNTAINS AND COLUMBIA GORGE
  
CITY           SKY/WX    TMP DP  RH WIND       PRES   REMARKS
STAMPEDE PASS  SNOW      30  26  85 SW8G20    29.84R VSB<1/4          
TROUTDALE, OR  MOSUNNY   52  32  46 SW22G32   30.15R                  
HOOD RIVER, OR MOCLDY    48  36  61 W7        30.10R                  
THE DALLES, OR PTSUNNY   48  32  53 W23G35    30.08R                  
$$

WAZ026-027-041>044-520-521-232100-
EAST SLOPES
  
CITY           SKY/WX    TMP DP  RH WIND       PRES   REMARKS
OMAK           CLOUDY    41  29  62 SW3       29.79R                  
WENATCHEE      MOSUNNY   43  34  70 N22G29    29.83S                  
ELLENSBURG     MOSUNNY   44  31  60 NW23G38   29.88R                  
YAKIMA         PTSUNNY   51  24  34 W17G24    29.93R                  
SUNNYSIDE ARPT MOCLDY    49  31  48 W25G31    29.95S                  
YAKIMA TC      FAIR      47  25  41 W24G30    29.91R                  
$$

WAZ028-034-035-232100-
COLUMBIA BASIN
  
CITY           SKY/WX    TMP DP  RH WIND       PRES   REMARKS
EPHRATA        CLOUDY    45  36  70 SW14G26   29.82S                  
MOSES LAKE     CLOUDY    46  36  68 SW12      29.84R                  
PASCO          CLOUDY    53  39  59 W21G33    29.94R                  
RICHLAND ARPT  CLOUDY    53  31  41 W23G29    29.94R                  
HERMISTON, OR  LGT RAIN  50  34  54 W32G49    29.96R                  
$$

WAZ036>038-232100-
NORTHEAST WASHINGTON
  
CITY           SKY/WX    TMP DP  RH WIND       PRES   REMARKS
SPOKANE GEIGER RAIN      40  33  76 S15G25    29.76F                  
SPOKANE FELTS  LGT RAIN  46  34  62 S14G26    29.78F                  
FAIRCHILD AFB  LGT RAIN  40  40  99 S16G23    29.75F                  
COEURDALENE,ID CLOUDY    43  29  57 S15G22    29.78F                  
DEER PARK      RAIN      39  32  76 MISG      29.78F                  
$$

WAZ029>033-232100-
SOUTHEAST WASHINGTON
  
CITY           SKY/WX    TMP DP  RH WIND       PRES   REMARKS
PULLMAN        PTSUNNY   45  34  65 E8        29.83F                  
LEWISTON, ID   CLOUDY    58  31  35 SW14      29.82F                  
WALLA WALLA    CLOUDY    56  34  43 SW29G37   29.86R                  
PENDLETON, OR  CLOUDY    48  39  71 W49G63    29.92R                  
$$
  

Return to Home page


Western Regional Climate Center, wrcc@dri.edu